Weather History for KMMH - October, 2013

Change the Weather History Date:

Friday, October 11, 2013

  Actual Average (KBIH) Record (KBIH)
Temperature  
Mean Temperature 40 °F 59 °F  
Max Temperature 60 °F 78 °F 91 °F (1971)
Min Temperature 21 °F 39 °F 27 °F (2008)
Degree Days  
Heating Degree Days 24 7  
Month to date heating degree days 57  
Since 1 July heating degree days 100  
Cooling Degree Days 0 0  
Month to date cooling degree days 7  
Year to date cooling degree days 1103  
Moisture  
Dew Point 24 °F    
Average Humidity 60    
Maximum Humidity 93    
Minimum Humidity 23    
Precipitation  
Precipitation 0.00 in 0.01 in 0.42 in (2012)
Month to date precipitation 0.10  
Year to date precipitation 3.66  
Snow  
Snow 0.00 in 0.00 in T in (2008)
Month to date snowfall 0.0  
Since 1 July snowfall 0.0  
Since 1 September snowfall 0.0  
Snow Depth -    
Sea Level Pressure  
Sea Level Pressure 30.12 in    
Wind  
Wind Speed 3 mph (East)    
Max Wind Speed 12 mph    
Max Gust Speed -    
Visibility 10 miles    
Events      
T = Trace of Precipitation, MM = Missing Value Source: NWS Daily Summary

Daily Weather History Graph

Daily Weather History Graph

Search for Another Location

Airport or City:

Trip Planner

Search our weather history database for the weather conditions in past years. The results will help you decide how hot, cold, wet, or windy it might be!

Date:

Astronomy

Oct. 11, 2013 Rise Set
Actual Time 7:00 AM PDT 6:23 PM PDT
Civil Twilight 6:33 AM PDT 6:49 PM PDT
Nautical Twilight 6:03 AM PDT 7:19 PM PDT
Astronomical Twilight 5:33 AM PDT 7:50 PM PDT
Moon 1:42 PM PDT (10/11) No Moon Set
Length of Visible Light 12h 15m
Length of Day
11h 23m
Waxing Crescent, 48% of the Moon is Illuminated
Oct 11
Waxing Crescent
Oct 11
First Quarter
Oct 18
Full
Oct 26
Last Quarter
Nov 3
New

Hourly Weather History & Observations

Time (PDT) Temp. Windchill Dew Point Humidity Pressure Visibility Wind Dir Wind Speed Gust Speed Precip Events Conditions
12:15 AM 32.0 °F - 26.6 °F 80% 30.11 in 10.0 mi Calm Calm - N/A   Clear
12:35 AM 32.0 °F - 26.6 °F 80% 30.11 in 10.0 mi Calm Calm - N/A   Clear
12:55 AM 32.0 °F - 26.6 °F 80% 30.11 in 10.0 mi Calm Calm - N/A   Clear
1:15 AM 32.0 °F - 26.6 °F 80% 30.11 in 10.0 mi Calm Calm - N/A   Clear
1:35 AM 28.4 °F 24.6 °F 24.8 °F 86% 30.11 in 10.0 mi WNW 3.5 mph - N/A   Clear
1:55 AM 28.4 °F - 24.8 °F 86% 30.11 in 10.0 mi Calm Calm - N/A   Clear
2:15 AM 26.6 °F - 23.0 °F 86% 30.11 in 10.0 mi North - - N/A   Clear
2:35 AM 26.6 °F - 24.8 °F 93% 30.11 in 10.0 mi North - - N/A   Clear
2:55 AM 26.6 °F 22.6 °F 24.8 °F 93% 30.12 in 10.0 mi NW 3.5 mph - N/A   Clear
3:15 AM 24.8 °F - 23.0 °F 93% 30.12 in 10.0 mi Calm Calm - N/A   Clear
3:35 AM 26.6 °F - 24.8 °F 93% 30.12 in 10.0 mi North - - N/A   Clear
3:55 AM 26.6 °F 22.6 °F 24.8 °F 93% 30.13 in 10.0 mi North 3.5 mph - N/A   Clear
4:15 AM 26.6 °F - 23.0 °F 86% 30.12 in 10.0 mi Calm Calm - N/A   Clear
4:35 AM 26.6 °F - 23.0 °F 86% 30.13 in 10.0 mi North - - N/A   Clear
4:55 AM 26.6 °F - 23.0 °F 86% 30.13 in 10.0 mi North - - N/A   Clear
5:15 AM 24.8 °F - 23.0 °F 93% 30.13 in 10.0 mi Calm Calm - N/A   Clear
5:35 AM 21.2 °F - 19.4 °F 93% 30.14 in 10.0 mi Calm Calm - N/A   Clear
5:55 AM 23.0 °F - 21.2 °F 93% 30.13 in 10.0 mi North - - N/A   Clear
6:15 AM 23.0 °F 18.4 °F 21.2 °F 93% 30.15 in 10.0 mi North 3.5 mph - N/A   Clear
6:35 AM 24.8 °F - 23.0 °F 93% 30.15 in 10.0 mi Calm Calm - N/A   Clear
6:55 AM 23.0 °F 17.0 °F 21.2 °F 93% 30.15 in 10.0 mi North 4.6 mph - N/A   Clear
7:15 AM 23.0 °F - 21.2 °F 93% 30.15 in 10.0 mi North - - N/A   Clear
7:35 AM 24.8 °F - 21.2 °F 86% 30.16 in 10.0 mi Calm Calm - N/A   Clear
7:55 AM 26.6 °F - 24.8 °F 93% 30.17 in 10.0 mi Calm Calm - N/A   Clear
8:15 AM 30.2 °F - 26.6 °F 86% 30.16 in 10.0 mi Calm Calm - N/A   Clear
8:35 AM 32.0 °F - 28.4 °F 87% 30.17 in 10.0 mi Calm Calm - N/A   Clear
8:55 AM 35.6 °F - 30.2 °F 81% 30.17 in 10.0 mi Calm Calm - N/A   Clear
9:15 AM 39.2 °F 35.9 °F 30.2 °F 70% 30.17 in 10.0 mi SSE 4.6 mph - N/A   Clear
9:35 AM 41.0 °F - 30.2 °F 65% 30.16 in 10.0 mi Calm Calm - N/A   Clear
9:55 AM 42.8 °F - 28.4 °F 57% 30.16 in 10.0 mi Calm Calm - N/A   Clear
10:15 AM 46.4 °F 43.5 °F 30.2 °F 53% 30.17 in 10.0 mi SSE 5.8 mph - N/A   Clear
10:35 AM 48.2 °F - 28.4 °F 46% 30.17 in 10.0 mi SSE 5.8 mph - N/A   Clear
10:55 AM 50.0 °F - 28.4 °F 43% 30.17 in 10.0 mi East 4.6 mph - N/A   Clear
11:15 AM 51.8 °F - 28.4 °F 41% 30.16 in 10.0 mi ESE 5.8 mph - N/A   Clear
11:35 AM 53.6 °F - 26.6 °F 35% 30.15 in 10.0 mi SE 3.5 mph - N/A   Clear
11:55 AM 55.4 °F - 23.0 °F 29% 30.14 in 10.0 mi SE 5.8 mph - N/A   Clear
12:15 PM 55.4 °F - 23.0 °F 29% 30.14 in 10.0 mi South 8.1 mph - N/A   Clear
12:35 PM 55.4 °F - 23.0 °F 29% 30.13 in 10.0 mi SE 4.6 mph - N/A   Clear
12:55 PM 57.2 °F - 23.0 °F 27% 30.12 in 10.0 mi Calm Calm - N/A   Clear
1:15 PM 57.2 °F - 23.0 °F 27% 30.11 in 10.0 mi ESE 9.2 mph - N/A   Clear
1:35 PM 59.0 °F - 23.0 °F 25% 30.11 in 10.0 mi SE 5.8 mph - N/A   Clear
1:55 PM 59.0 °F - 23.0 °F 25% 30.10 in 10.0 mi SE 8.1 mph - N/A   Clear
2:15 PM 59.0 °F - 23.0 °F 25% 30.09 in 10.0 mi SE 6.9 mph - N/A   Clear
2:35 PM 59.0 °F - 24.8 °F 27% 30.09 in 10.0 mi East 11.5 mph - N/A   Clear
2:55 PM 59.0 °F - 23.0 °F 25% 30.09 in 10.0 mi ESE 9.2 mph - N/A   Clear
3:15 PM 59.0 °F - 24.8 °F 27% 30.08 in 10.0 mi East 11.5 mph - N/A   Clear
3:35 PM 60.8 °F - 23.0 °F 23% 30.08 in 10.0 mi ESE 6.9 mph - N/A   Clear
3:55 PM 60.8 °F - 23.0 °F 23% 30.08 in 10.0 mi ESE 9.2 mph - N/A   Clear
4:15 PM 59.0 °F - 23.0 °F 25% 30.08 in 10.0 mi SE 8.1 mph - N/A   Clear
4:35 PM 59.0 °F - 23.0 °F 25% 30.08 in 10.0 mi East 6.9 mph - N/A   Clear
4:55 PM 57.2 °F - 23.0 °F 27% 30.07 in 10.0 mi East 6.9 mph - N/A   Clear
5:15 PM 55.4 °F - 24.8 °F 31% 30.07 in 10.0 mi ESE 9.2 mph - N/A   Clear
5:35 PM 53.6 °F - 26.6 °F 35% 30.08 in 10.0 mi ESE 9.2 mph - N/A   Clear
5:55 PM 51.8 °F - 24.8 °F 35% 30.08 in 10.0 mi ESE 6.9 mph - N/A   Clear
6:15 PM 50.0 °F - 21.2 °F 32% 30.09 in 10.0 mi East 6.9 mph - N/A   Clear
6:35 PM 48.2 °F - 21.2 °F 34% 30.09 in 10.0 mi East 3.5 mph - N/A   Clear
6:55 PM 46.4 °F 43.5 °F 23.0 °F 40% 30.09 in 10.0 mi East 5.8 mph - N/A   Clear
7:15 PM 44.6 °F - 23.0 °F 43% 30.10 in 10.0 mi Calm Calm - N/A   Clear
7:35 PM 42.8 °F 38.6 °F 24.8 °F 49% 30.10 in 10.0 mi West 6.9 mph - N/A   Clear
7:55 PM 39.2 °F 37.0 °F 23.0 °F 52% 30.11 in 10.0 mi North 3.5 mph - N/A   Clear
8:15 PM 41.0 °F - 24.8 °F 53% 30.11 in 10.0 mi Calm Calm - N/A   Clear
8:35 PM 42.8 °F - 26.6 °F 53% 30.12 in 10.0 mi Calm Calm - N/A   Clear
8:55 PM 39.2 °F - 24.8 °F 56% 30.12 in 10.0 mi Calm Calm - N/A   Clear
9:15 PM 35.6 °F 32.8 °F 24.8 °F 65% 30.13 in 10.0 mi North 3.5 mph - N/A   Clear
9:35 PM 33.8 °F 27.7 °F 24.8 °F 70% 30.14 in 10.0 mi NNW 6.9 mph - N/A   Clear
9:55 PM 35.6 °F - 23.0 °F 60% 30.14 in 10.0 mi Calm Calm - N/A   Clear
10:15 PM 35.6 °F - 23.0 °F 60% 30.14 in 10.0 mi Calm Calm - N/A   Clear
10:35 PM 32.0 °F - 21.2 °F 64% 30.14 in 10.0 mi Calm Calm - N/A   Clear
10:55 PM 33.8 °F 30.8 °F 24.8 °F 70% 30.14 in 10.0 mi North 3.5 mph - N/A   Clear
11:15 PM 33.8 °F - 24.8 °F 70% 30.13 in 10.0 mi Calm Calm - N/A   Clear
11:35 PM 35.6 °F 32.8 °F 24.8 °F 65% 30.12 in 10.0 mi NNW 3.5 mph - N/A   Clear
11:55 PM 33.8 °F - 24.8 °F 70% 30.12 in 10.0 mi Calm Calm - N/A   Clear